sat.trackr.live / text

‹ back to catalog

STARLINK-36883

NORAD 67975 · 2026-038Q

PAYLOAD ACTIVE UNKNOWN

§ Identity

Operator
Country
US
Launch date
2026-02-25
Launch site
AFWTR
Launch vehicle
Mass (kg)
RCS (m²)

Purposes: comms

External: N2YO · Heavens-Above · Gunter

§ Orbital elements

Epoch: 2026-05-24T23:31:43.356288Z

Period
93.91 min
Inclination
97.2850°
Eccentricity
0.0000859
Mean motion
15.33447490 rev/d
Perigee alt
464.9 km
Apogee alt
466.1 km
Semi-major
6,843.7 km
B*
5.1268e-4
RAAN
155.0518°
Arg perigee
53.1684°
Mean anomaly
306.9638°
Rev number
1,493

§ Raw data

STARLINK-368831 67975U 26038Q   26144.98036292  .00016513  00000+0  51268-3 0  99992 67975  97.2850 155.0518 0000859  53.1684 306.9638 15.33447490 14933

JSON: /api/v1/satellites/67975 · /tle

For live sub-satellite position, see the globe view (requires WebGL).

§ Visibility from observer

Set your observer location to see the next 7 days of passes ≥ 10°. The values pass through the URL so the page stays shareable.

No JS? Fill the form by hand. The geolocation button needs JavaScript.